Time,TemperatureF,DewpointF,PressureIn,WindDirection,WindDirectionDegrees,WindSpeedMPH,WindSpeedGustMPH,Humidity,HourlyPrecipIn,Conditions,Clouds,dailyrainin,SoftwareType,DateUTC
2013-01-28 00:09:00,28.6,28.1,29.97,SSE,157,2.7,-999.0,98,-99.99,,,0.00,Acu-Link.com,2013-01-28 05:09:00,
2013-01-28 00:24:00,28.9,27.9,30.00,SSW,202,5.3,-999.0,96,-99.99,,,0.00,Acu-Link.com,2013-01-28 05:24:00,
2013-01-28 00:39:00,29.3,28.3,29.99,SSE,157,3.7,-999.0,96,-99.99,,,0.00,Acu-Link.com,2013-01-28 05:39:00,
2013-01-28 00:55:00,29.3,28.3,29.97,ESE,112,2.2,-999.0,96,-99.99,,,0.00,Acu-Link.com,2013-01-28 05:55:00,
2013-01-28 01:10:00,29.3,28.3,29.95,South,180,6.8,-999.0,96,-99.99,,,0.00,Acu-Link.com,2013-01-28 06:10:00,
2013-01-28 01:25:00,29.3,28.6,29.94,SSE,157,4.7,-999.0,97,-99.99,,,0.00,Acu-Link.com,2013-01-28 06:25:00,
2013-01-28 01:40:00,29.3,28.3,29.93,South,180,4.7,-999.0,96,-99.99,,,0.00,Acu-Link.com,2013-01-28 06:40:00,
2013-01-28 01:56:00,29.5,28.5,29.92,SE,135,2.2,-999.0,96,-99.99,,,0.00,Acu-Link.com,2013-01-28 06:56:00,
2013-01-28 02:11:00,29.7,28.7,29.90,SE,135,1.7,-999.0,96,-99.99,,,0.00,Acu-Link.com,2013-01-28 07:11:00,
2013-01-28 02:26:00,29.8,28.8,29.88,SE,135,6.3,-999.0,96,-99.99,,,0.00,Acu-Link.com,2013-01-28 07:26:00,
2013-01-28 02:42:00,30.0,29.0,29.89,SE,135,5.3,-999.0,96,-99.99,,,0.00,Acu-Link.com,2013-01-28 07:42:00,
2013-01-28 02:57:00,30.4,29.4,29.88,SSE,157,5.3,-999.0,96,-99.99,,,0.00,Acu-Link.com,2013-01-28 07:57:00,
2013-01-28 03:12:00,30.6,29.9,29.88,South,180,4.7,-999.0,97,-99.99,,,0.00,Acu-Link.com,2013-01-28 08:12:00,
2013-01-28 03:28:00,30.7,29.7,29.88,SSE,157,3.7,-999.0,96,-99.99,,,0.00,Acu-Link.com,2013-01-28 08:28:00,
2013-01-28 03:43:00,30.7,30.0,29.85,South,180,2.2,-999.0,97,-99.99,,,0.00,Acu-Link.com,2013-01-28 08:43:00,
2013-01-28 03:58:00,30.7,30.2,29.85,SSE,157,4.2,-999.0,98,-99.99,,,0.00,Acu-Link.com,2013-01-28 08:58:00,
2013-01-28 04:15:00,30.7,30.2,29.85,South,180,3.2,-999.0,98,-99.99,,,0.00,Acu-Link.com,2013-01-28 09:15:00,
2013-01-28 04:30:00,30.7,30.5,29.84,SE,135,4.7,-999.0,99,-99.99,,,0.00,Acu-Link.com,2013-01-28 09:30:00,
2013-01-28 04:46:00,30.9,30.7,29.83,SSE,157,4.2,-999.0,99,-99.99,,,0.00,Acu-Link.com,2013-01-28 09:46:00,
2013-01-28 05:01:00,31.3,31.1,29.81,SSW,202,3.7,-999.0,99,-99.99,,,0.00,Acu-Link.com,2013-01-28 10:01:00,
2013-01-28 05:16:00,31.5,31.3,29.80,SSE,157,3.7,-999.0,99,-99.99,,,0.00,Acu-Link.com,2013-01-28 10:16:00,
2013-01-28 05:31:00,31.6,31.4,29.79,SSE,157,4.7,-999.0,99,-99.99,,,0.00,Acu-Link.com,2013-01-28 10:31:00,
2013-01-28 05:47:00,32.0,31.8,29.78,South,180,2.7,-999.0,99,-99.99,,,0.00,Acu-Link.com,2013-01-28 10:47:00,
2013-01-28 06:02:00,32.0,31.8,29.78,South,180,3.2,-999.0,99,-99.99,,,0.00,Acu-Link.com,2013-01-28 11:02:00,
2013-01-28 06:17:00,32.0,31.8,29.77,SSE,157,1.7,-999.0,99,-99.99,,,0.00,Acu-Link.com,2013-01-28 11:17:00,
2013-01-28 06:33:00,32.0,31.8,29.77,SSE,157,2.2,-999.0,99,-99.99,,,0.00,Acu-Link.com,2013-01-28 11:33:00,
2013-01-28 06:48:00,32.2,32.0,29.76,South,180,2.2,-999.0,99,-99.99,,,0.00,Acu-Link.com,2013-01-28 11:48:00,
2013-01-28 07:03:00,32.2,32.0,29.75,South,180,1.7,-999.0,99,-99.99,,,0.00,Acu-Link.com,2013-01-28 12:03:00,
2013-01-28 07:19:00,32.2,32.0,29.75,South,180,2.2,-999.0,99,-99.99,,,0.00,Acu-Link.com,2013-01-28 12:19:00,
2013-01-28 07:34:00,32.2,32.0,29.75,SSW,202,0.0,-999.0,99,-99.99,,,0.00,Acu-Link.com,2013-01-28 12:34:00,
2013-01-28 07:49:00,32.4,32.2,29.74,South,180,2.7,-999.0,99,-99.99,,,0.00,Acu-Link.com,2013-01-28 12:49:00,
2013-01-28 08:04:00,32.4,32.2,29.74,South,180,2.7,-999.0,99,-99.99,,,0.00,Acu-Link.com,2013-01-28 13:04:00,
2013-01-28 08:20:00,32.4,32.2,29.74,SSW,202,3.2,-999.0,99,-99.99,,,0.01,Acu-Link.com,2013-01-28 13:20:00,
2013-01-28 08:35:00,32.4,32.2,29.72,SSW,202,2.7,-999.0,99,-99.99,,,0.01,Acu-Link.com,2013-01-28 13:35:00,
2013-01-28 08:50:00,32.4,32.2,29.72,South,180,2.7,-999.0,99,-99.99,,,0.01,Acu-Link.com,2013-01-28 13:50:00,
2013-01-28 09:06:00,32.7,32.5,29.71,South,180,1.7,-999.0,99,-99.99,,,0.01,Acu-Link.com,2013-01-28 14:06:00,
2013-01-28 09:21:00,32.7,32.5,29.70,SSW,202,2.2,-999.0,99,-99.99,,,0.01,Acu-Link.com,2013-01-28 14:21:00,
2013-01-28 09:36:00,32.7,32.5,29.70,SSW,202,2.2,-999.0,99,-99.99,,,0.01,Acu-Link.com,2013-01-28 14:36:00,
2013-01-28 09:51:00,32.7,32.5,29.69,South,180,1.1,-999.0,99,-99.99,,,0.01,Acu-Link.com,2013-01-28 14:51:00,
2013-01-28 10:07:00,32.9,32.7,29.70,South,180,2.2,-999.0,99,-99.99,,,0.01,Acu-Link.com,2013-01-28 15:07:00,
2013-01-28 10:22:00,33.3,33.0,29.69,SW,225,2.2,-999.0,99,-99.99,,,0.01,Acu-Link.com,2013-01-28 15:22:00,
2013-01-28 10:37:00,33.6,33.3,29.69,SSW,202,2.7,-999.0,99,-99.99,,,0.01,Acu-Link.com,2013-01-28 15:37:00,
2013-01-28 10:53:00,34.0,33.7,29.69,SSW,202,3.2,-999.0,99,-99.99,,,0.01,Acu-Link.com,2013-01-28 15:53:00,
2013-01-28 11:08:00,34.7,34.4,29.69,SW,225,3.7,-999.0,99,-99.99,,,0.01,Acu-Link.com,2013-01-28 16:08:00,
2013-01-28 11:23:00,35.4,35.1,29.70,SW,225,3.7,-999.0,99,-99.99,,,0.02,Acu-Link.com,2013-01-28 16:23:00,
2013-01-28 11:39:00,36.1,35.8,29.69,SSW,202,6.3,-999.0,99,-99.99,,,0.03,Acu-Link.com,2013-01-28 16:39:00,
2013-01-28 11:54:00,36.7,36.4,29.69,SW,225,6.3,-999.0,99,-99.99,,,0.06,Acu-Link.com,2013-01-28 16:54:00,
2013-01-28 12:09:00,37.9,37.6,29.68,SW,225,5.8,-999.0,99,-99.99,,,0.20,Acu-Link.com,2013-01-28 17:09:00,
2013-01-28 12:24:00,38.1,37.8,29.67,SW,225,5.3,-999.0,99,-99.99,,,0.28,Acu-Link.com,2013-01-28 17:24:00,
2013-01-28 12:40:00,38.7,38.4,29.66,SW,225,6.8,-999.0,99,-99.99,,,0.36,Acu-Link.com,2013-01-28 17:40:00,
2013-01-28 12:55:00,39.0,38.7,29.65,SSW,202,5.3,-999.0,99,-99.99,,,0.42,Acu-Link.com,2013-01-28 17:55:00,
2013-01-28 13:10:00,39.6,39.3,29.66,SSW,202,7.8,-999.0,99,-99.99,,,0.52,Acu-Link.com,2013-01-28 18:10:00,
2013-01-28 13:26:00,39.6,39.3,29.65,SSW,202,4.2,-999.0,99,-99.99,,,0.56,Acu-Link.com,2013-01-28 18:26:00,
2013-01-28 13:41:00,39.7,39.4,29.65,WSW,247,5.3,-999.0,99,-99.99,,,0.59,Acu-Link.com,2013-01-28 18:41:00,
2013-01-28 13:56:00,39.9,39.6,29.65,SSW,202,4.7,-999.0,99,-99.99,,,0.61,Acu-Link.com,2013-01-28 18:56:00,
2013-01-28 14:12:00,39.9,39.6,29.64,SSW,202,4.2,-999.0,99,-99.99,,,0.63,Acu-Link.com,2013-01-28 19:12:00,
2013-01-28 14:27:00,40.5,40.2,29.64,SW,225,4.2,-999.0,99,-99.99,,,0.64,Acu-Link.com,2013-01-28 19:27:00,
2013-01-28 14:42:00,40.6,40.3,29.65,SSW,202,3.7,-999.0,99,-99.99,,,0.64,Acu-Link.com,2013-01-28 19:42:00,
2013-01-28 14:58:00,40.6,40.3,29.65,SSW,202,3.2,-999.0,99,-99.99,,,0.64,Acu-Link.com,2013-01-28 19:58:00,
2013-01-28 15:13:00,40.8,40.5,29.66,SSW,202,3.7,-999.0,99,-99.99,,,0.64,Acu-Link.com,2013-01-28 20:13:00,
2013-01-28 15:28:00,41.0,40.7,29.67,SW,225,2.7,-999.0,99,-99.99,,,0.64,Acu-Link.com,2013-01-28 20:28:00,
2013-01-28 15:43:00,41.0,40.7,29.67,SSW,202,2.2,-999.0,99,-99.99,,,0.64,Acu-Link.com,2013-01-28 20:43:00,
2013-01-28 15:59:00,41.4,41.1,29.68,SSW,202,1.7,-999.0,99,-99.99,,,0.64,Acu-Link.com,2013-01-28 20:59:00,
2013-01-28 16:14:00,41.5,41.2,29.69,SW,225,1.7,-999.0,99,-99.99,,,0.64,Acu-Link.com,2013-01-28 21:14:00,
2013-01-28 16:29:00,42.1,41.8,29.70,WSW,247,0.0,-999.0,99,-99.99,,,0.64,Acu-Link.com,2013-01-28 21:29:00,
2013-01-28 16:45:00,42.4,42.1,29.71,WSW,247,2.2,-999.0,99,-99.99,,,0.64,Acu-Link.com,2013-01-28 21:45:00,
2013-01-28 17:00:00,42.4,42.1,29.72,SSW,202,2.7,-999.0,99,-99.99,,,0.64,Acu-Link.com,2013-01-28 22:00:00,
2013-01-28 17:15:00,42.3,42.0,29.72,NW,315,3.2,-999.0,99,-99.99,,,0.64,Acu-Link.com,2013-01-28 22:15:00,
2013-01-28 17:30:00,41.9,41.6,29.73,SSW,202,6.8,-999.0,99,-99.99,,,0.64,Acu-Link.com,2013-01-28 22:30:00,
2013-01-28 17:45:00,41.0,40.5,29.75,WSW,247,5.3,-999.0,98,-99.99,,,0.64,Acu-Link.com,2013-01-28 22:45:00,
2013-01-28 18:01:00,40.5,39.7,29.76,SSW,202,3.2,-999.0,97,-99.99,,,0.64,Acu-Link.com,2013-01-28 23:01:00,
2013-01-28 18:16:00,39.7,38.9,29.77,West,270,4.7,-999.0,97,-99.99,,,0.64,Acu-Link.com,2013-01-28 23:16:00,
2013-01-28 18:31:00,39.6,38.0,29.77,NNE,22,5.8,-999.0,94,-99.99,,,0.65,Acu-Link.com,2013-01-28 23:31:00,
2013-01-28 18:47:00,39.2,37.6,29.78,South,180,3.2,-999.0,94,-99.99,,,0.65,Acu-Link.com,2013-01-28 23:47:00,
2013-01-28 19:02:00,39.0,37.4,29.79,NNW,337,6.3,-999.0,94,-99.99,,,0.65,Acu-Link.com,2013-01-29 00:02:00,
2013-01-28 19:17:00,38.7,37.1,29.80,NNW,337,3.7,-999.0,94,-99.99,,,0.65,Acu-Link.com,2013-01-29 00:17:00,
2013-01-28 19:33:00,38.5,36.9,29.80,NNE,22,1.7,-999.0,94,-99.99,,,0.65,Acu-Link.com,2013-01-29 00:33:00,
2013-01-28 19:48:00,38.1,36.5,29.81,North,0,1.7,-999.0,94,-99.99,,,0.65,Acu-Link.com,2013-01-29 00:48:00,
2013-01-28 20:03:00,37.9,36.3,29.81,North,0,1.7,-999.0,94,-99.99,,,0.65,Acu-Link.com,2013-01-29 01:03:00,
2013-01-28 20:19:00,37.8,36.2,29.81,North,0,4.7,-999.0,94,-99.99,,,0.65,Acu-Link.com,2013-01-29 01:19:00,
2013-01-28 20:34:00,37.4,35.8,29.82,West,270,1.7,-999.0,94,-99.99,,,0.65,Acu-Link.com,2013-01-29 01:34:00,
2013-01-28 20:49:00,36.9,35.3,29.82,NW,315,2.2,-999.0,94,-99.99,,,0.65,Acu-Link.com,2013-01-29 01:49:00,
2013-01-28 21:05:00,36.7,35.1,29.83,NE,45,0.0,-999.0,94,-99.99,,,0.65,Acu-Link.com,2013-01-29 02:05:00,
2013-01-28 21:20:00,36.3,34.7,29.83,SW,225,1.7,-999.0,94,-99.99,,,0.65,Acu-Link.com,2013-01-29 02:20:00,
2013-01-28 21:35:00,36.1,34.5,29.83,WSW,247,0.0,-999.0,94,-99.99,,,0.65,Acu-Link.com,2013-01-29 02:35:00,
2013-01-28 21:50:00,35.8,34.2,29.83,SW,225,1.1,-999.0,94,-99.99,,,0.65,Acu-Link.com,2013-01-29 02:50:00,
2013-01-28 22:06:00,35.8,34.2,29.83,SSW,202,1.1,-999.0,94,-99.99,,,0.65,Acu-Link.com,2013-01-29 03:06:00,
2013-01-28 22:21:00,35.6,34.0,29.83,WSW,247,0.0,-999.0,94,-99.99,,,0.65,Acu-Link.com,2013-01-29 03:21:00,
2013-01-28 22:36:00,35.4,33.8,29.83,NW,315,0.0,-999.0,94,-99.99,,,0.65,Acu-Link.com,2013-01-29 03:36:00,
2013-01-28 22:52:00,35.2,33.6,29.84,SW,225,0.0,-999.0,94,-99.99,,,0.65,Acu-Link.com,2013-01-29 03:52:00,
2013-01-28 23:07:00,35.2,33.6,29.84,SW,225,1.7,-999.0,94,-99.99,,,0.65,Acu-Link.com,2013-01-29 04:07:00,
2013-01-28 23:23:00,35.1,33.3,29.84,NNE,22,2.2,-999.0,93,-99.99,,,0.65,Acu-Link.com,2013-01-29 04:23:00,
2013-01-28 23:38:00,35.1,33.3,29.85,SW,225,0.0,-999.0,93,-99.99,,,0.65,Acu-Link.com,2013-01-29 04:38:00,
2013-01-28 23:53:00,34.9,32.8,29.84,ENE,67,0.0,-999.0,92,-99.99,,,0.65,Acu-Link.com,2013-01-29 04:53:00,